INTELSAT 23 (IS-23)

Last updated on Dec. 11, 2019, 4:28 a.m. UTC

1 38867U 12057A   19344.14980024 -.00000264  00000-0  00000+0 0  9998
2 38867   0.0191   6.0137 0002832 266.9383 166.5803  1.00270986 26239
UTC
Height (km)
Latitude
Longitude
Inclination
Orbital Period
UTC large
Height (km)
Speed (km/s)
/
Latitude / Longitude
Inclination (degrees)
Orbital Period (minutes)
Azimuth
Elevation
Range (km)
Doppler Factor
iOS Compass Heading
iOS Angle

Next 30 passes for location: Hong Kong

Rise time Rise Azimuth (degrees) Set time Set Azimuth (degrees) Duration Max altitude (degrees)

No matching passes for this satellites